Weather History for Dayton, OH

Change the Weather History Date:

Sunday, February 10, 2013

  Actual Average Record
Temperature  
Mean Temperature 39 °F 30 °F  
Max Temperature 51 °F 37 °F 72 °F (1932)
Min Temperature 27 °F 22 °F -22 °F (1899)
Degree Days  
Heating Degree Days 26 35  
Month to date heating degree days 369 360  
Since 1 July heating degree days 3460 3683  
Cooling Degree Days 0 0  
Month to date cooling degree days 0 0  
Year to date cooling degree days 0 0  
Moisture  
Dew Point 29 °F    
Average Humidity 62    
Maximum Humidity 86    
Minimum Humidity 38    
Precipitation  
Precipitation T in 0.08 in 2.17 in (1959)
Month to date precipitation 0.20 0.81  
Year to date precipitation 3.30 3.52  
Snow  
Snow 0.00 in 0.20 in 2.50 in (1944)
Month to date snowfall 1.2 2.2  
Since 1 July snowfall 19.1 15.6  
Snow Depth 0.00 in    
Sea Level Pressure  
Sea Level Pressure 30.02 in    
Wind  
Wind Speed 13 mph (SSE)    
Max Wind Speed 30 mph    
Max Gust Speed 38 mph    
Visibility 10 miles    
Events      
T = Trace of Precipitation, MM = Missing Value Source: NWS Daily Summary

Daily Weather History Graph

Daily Weather History Graph

Search for Another Location

Airport:

Trip Planner

Search our weather history database for the weather conditions in past years. The results will help you decide how hot, cold, wet, or windy it might be!

Date:

Astronomy

Feb. 10, 2013 Rise Set
Actual Time 7:35 AM EST 6:07 PM EST
Civil Twilight 7:07 AM EST 6:35 PM EST
Nautical Twilight 6:35 AM EST 7:07 PM EST
Astronomical Twilight 6:04 AM EST 7:38 PM EST
Moon 7:24 AM EST (2/10) 6:57 PM EST (2/10)
Length of Visible Light 11h 27m
Length of Day
10h 31m
New Moon, 0% of the Moon is Illuminated
Feb 10
New Moon
Feb 17
First Quarter
Feb 25
Full
Mar 4
Last Quarter
Mar 11
New

Hourly Weather History & Observations

Time (EST) Temp. Windchill Dew Point Humidity Pressure Visibility Wind Dir Wind Speed Gust Speed Precip Events Conditions
12:56 AM 28.0 °F 19.3 °F 21.0 °F 75% 30.25 in 10.0 mi ESE 9.2 mph - N/A   Mostly Cloudy
1:56 AM 28.9 °F 19.8 °F 21.0 °F 72% 30.24 in 10.0 mi SE 10.4 mph - N/A   Mostly Cloudy
2:56 AM 30.0 °F 21.7 °F 21.0 °F 69% 30.23 in 10.0 mi SE 9.2 mph - N/A   Mostly Cloudy
3:56 AM 30.9 °F 22.2 °F 21.0 °F 67% 30.20 in 10.0 mi SE 10.4 mph - N/A   Overcast
4:56 AM 30.9 °F 25.2 °F 21.0 °F 67% 30.21 in 10.0 mi SSE 5.8 mph - N/A   Overcast
5:56 AM 32.0 °F 23.0 °F 21.0 °F 64% 30.17 in 10.0 mi ESE 11.5 mph - N/A   Overcast
6:56 AM 32.0 °F 24.2 °F 21.0 °F 64% 30.18 in 10.0 mi SE 9.2 mph - N/A   Mostly Cloudy
7:56 AM 33.1 °F 25.5 °F 21.9 °F 64% 30.17 in 10.0 mi SE 9.2 mph - N/A   Scattered Clouds
8:56 AM 35.1 °F 26.9 °F 23.0 °F 61% 30.14 in 10.0 mi SSE 11.5 mph - N/A   Overcast
9:56 AM 37.0 °F 29.3 °F 23.0 °F 57% 30.13 in 10.0 mi SSE 11.5 mph - N/A   Overcast
10:56 AM 39.0 °F 33.4 °F 25.0 °F 57% 30.14 in 10.0 mi SSE 8.1 mph - N/A   Overcast
11:56 AM 43.0 °F 37.2 °F 27.0 °F 53% 30.09 in 10.0 mi SSE 10.4 mph - N/A   Overcast
12:56 PM 48.0 °F - 28.0 °F 46% 30.03 in 10.0 mi SSE 13.8 mph - N/A   Overcast
1:56 PM 51.1 °F - 27.0 °F 39% 29.97 in 10.0 mi SSE 15.0 mph 23.0 mph N/A   Overcast
2:56 PM 50.0 °F - 28.0 °F 43% 29.98 in 10.0 mi South 13.8 mph - N/A   Overcast
3:56 PM 50.0 °F - 30.0 °F 46% 29.95 in 10.0 mi SSE 11.5 mph - N/A   Overcast
4:56 PM 50.0 °F - 28.9 °F 44% 29.90 in 10.0 mi SSE 18.4 mph - N/A   Overcast
5:56 PM 50.0 °F - 30.9 °F 48% 29.86 in 10.0 mi South 9.2 mph 26.5 mph 0.00 in   Overcast
6:56 PM 48.9 °F - 37.0 °F 64% 29.86 in 10.0 mi South 20.7 mph 27.6 mph 0.00 in   Overcast
7:30 PM 48.2 °F - 37.4 °F 66% 29.82 in 10.0 mi South 20.7 mph 28.8 mph N/A   Overcast
7:56 PM 48.9 °F - 39.0 °F 69% 29.84 in 10.0 mi South 21.9 mph 32.2 mph N/A   Overcast
8:56 PM 48.0 °F - 41.0 °F 77% 29.83 in 10.0 mi South 17.3 mph 29.9 mph N/A   Overcast
9:56 PM 48.0 °F - 42.1 °F 80% 29.82 in 10.0 mi South 21.9 mph 29.9 mph N/A   Overcast
10:48 PM 48.2 °F - 44.6 °F 87% 29.79 in 10.0 mi South 18.4 mph 27.6 mph N/A   Overcast
10:56 PM 48.0 °F - 44.1 °F 86% 29.81 in 10.0 mi South 17.3 mph 24.2 mph N/A   Overcast
11:56 PM 46.9 °F - 44.1 °F 90% 29.79 in 6.0 mi South 17.3 mph - N/A   Overcast